This is the latest recevied weather packets stored in our database for station/object KE6YLF. If no packets are shown the sender has not sent any weather packets the latest 10 day(s).
| Time | Temp. | Humidity | Pressure | Rain* | Wind** | Luminosity | Snow |
|---|---|---|---|---|---|---|---|
| 1788181761 | 27.22° C | 65% | 1076.1 hPa | 0 mm | - | - | - |
| 1788181457 | 27.22° C | 65% | 1076.2 hPa | 0 mm | - | - | - |
| 1788181156 | 27.22° C | 64% | 1076.4 hPa | 0 mm | - | - | - |
| 1788180851 | 27.22° C | 63% | 1076.3 hPa | 0 mm | - | - | - |
| 1788180547 | 27.78° C | 62% | 1076.5 hPa | 0 mm | - | - | - |
| 1788180243 | 27.78° C | 61% | 1076.4 hPa | 0 mm | - | - | - |
| 1788179942 | 27.78° C | 60% | 1076.5 hPa | 0 mm | - | - | - |
| 1788179642 | 27.22° C | 60% | 1076.2 hPa | 0 mm | - | - | - |
| 1788179341 | 27.22° C | 61% | 1076.2 hPa | 0 mm | - | - | - |
| 1788179037 | 27.78° C | 57% | 1076.1 hPa | 0 mm | - | - | - |
| 1788178732 | 27.22° C | 63% | 1076.2 hPa | 0 mm | - | - | - |
| 1788178423 | 26.67° C | 62% | 1076 hPa | 0 mm | - | - | - |
| 1788178118 | 26.67° C | 63% | 1076 hPa | 0 mm | - | - | - |
| 1788177818 | 27.22° C | 63% | 1076 hPa | 0 mm | - | - | - |
| 1788177513 | 27.22° C | 64% | 1075.9 hPa | 0 mm | - | - | - |
| 1788177210 | 27.22° C | 64% | 1075.6 hPa | 0 mm | - | - | - |
| 1788176909 | 27.22° C | 71% | 1075.8 hPa | 0 mm | - | - | - |
| 1788176607 | 26.67° C | 71% | 1075.6 hPa | 0 mm | - | - | - |
| 1788176304 | 26.67° C | 71% | 1075.7 hPa | 0 mm | - | - | - |
| 1788175998 | 26.67° C | 74% | 1075.7 hPa | 0 mm | - | - | - |
| 1788175698 | 27.22° C | 73% | 1075.8 hPa | 0 mm | - | - | - |
| 1788175393 | 27.22° C | 71% | 1075.7 hPa | 0 mm | - | - | - |
| 1788175089 | 27.22° C | 69% | 1075.7 hPa | 0 mm | - | - | - |
| 1788174785 | 27.22° C | 66% | 1075.7 hPa | 0 mm | - | - | - |
| 1788174480 | 26.67° C | 78% | 1075.7 hPa | 0 mm | - | - | - |
* Rain latest hour (hover to see other rain measurements)
** Current wind speed in m/s (hover to see current wind gust speed)